Location: Centerville
(32.8776°N, 96.6203°W)
Time: 03:39:00
(UTC+00:00)

Cosmos 1553 Rocket - Pass Details

Date: 17 June 2021
Orbit: 941 x 1009 km, 82.9° (Epoch: 29 July)

Event Time Altitude Azimuth Distance (km) Brightness Sun altitude
Rises 09:34:16 0° 350° (N) 3,704 7.5 -18.2°
Reaches altitude 10° 09:36:49 10° 347° (NNW) 2,742 6.8 -17.9°
Maximum altitude 09:43:01 64° 268° (W) 1,069 4.0 -16.9°
Enters shadow 09:47:56 16° 190° (S) 2,271 5.5 -16.2°
